TimeMST,TemperatureF,Dew PointF,Humidity,Sea Level PressureIn,VisibilityMPH,Wind Direction,Wind SpeedMPH,Gust SpeedMPH,PrecipitationIn,Events,Conditions,WindDirDegrees,DateUTC
12:15 AM,-4.0,-7.6,85,29.75,10.0,Calm,Calm,-,N/A,,Mostly Cloudy,0,2013-01-29 07:15:00
12:35 AM,-7.6,-13.0,77,29.75,10.0,WNW,3.5,-,N/A,,Mostly Cloudy,300,2013-01-29 07:35:00
12:55 AM,-7.6,-11.2,84,29.74,10.0,West,9.2,-,N/A,,Scattered Clouds,270,2013-01-29 07:55:00
1:15 AM,-5.8,-9.4,84,29.74,10.0,NNW,3.5,-,N/A,,Mostly Cloudy,330,2013-01-29 08:15:00
1:35 AM,-5.8,-9.4,84,29.74,10.0,Calm,Calm,-,N/A,,Overcast,0,2013-01-29 08:35:00
1:55 AM,-7.6,-11.2,84,29.74,10.0,WNW,4.6,-,N/A,,Overcast,290,2013-01-29 08:55:00
2:15 AM,-7.6,-11.2,84,29.73,10.0,West,4.6,-,N/A,,Mostly Cloudy,280,2013-01-29 09:15:00
2:35 AM,-7.6,-11.2,84,29.73,10.0,NNW,4.6,-,N/A,,Mostly Cloudy,330,2013-01-29 09:35:00
2:55 AM,-5.8,-9.4,84,29.73,10.0,West,4.6,-,N/A,,Overcast,270,2013-01-29 09:55:00
3:15 AM,-7.6,-13.0,77,29.72,10.0,WNW,4.6,-,N/A,,Mostly Cloudy,290,2013-01-29 10:15:00
3:35 AM,-5.8,-9.4,84,29.72,7.0,West,5.8,-,N/A,,Overcast,280,2013-01-29 10:35:00
3:55 AM,-4.0,-7.6,85,29.72,10.0,West,10.4,-,N/A,,Overcast,270,2013-01-29 10:55:00
4:15 AM,-4.0,-7.6,85,29.71,10.0,WNW,8.1,-,N/A,,Overcast,300,2013-01-29 11:15:00
4:35 AM,-4.0,-7.6,85,29.71,10.0,WNW,5.8,-,N/A,,Overcast,290,2013-01-29 11:35:00
4:55 AM,-4.0,-7.6,85,29.71,4.0,NW,4.6,-,N/A,,Overcast,310,2013-01-29 11:55:00
5:15 AM,-4.0,-7.6,85,29.70,10.0,West,4.6,-,N/A,,Overcast,280,2013-01-29 12:15:00
5:35 AM,-4.0,-7.6,85,29.70,5.0,WNW,4.6,-,N/A,,Overcast,300,2013-01-29 12:35:00
5:55 AM,-4.0,-7.6,85,29.70,5.0,NW,5.8,-,N/A,,Overcast,320,2013-01-29 12:55:00
6:15 AM,-5.8,-9.4,84,29.71,5.0,West,5.8,-,N/A,Snow,Light Snow,270,2013-01-29 13:15:00
6:35 AM,-5.8,-7.6,92,29.71,7.0,WNW,4.6,-,N/A,,Mostly Cloudy,300,2013-01-29 13:35:00
6:55 AM,-4.0,-7.6,85,29.71,4.0,NW,4.6,-,N/A,Snow,Light Snow,310,2013-01-29 13:55:00
7:15 AM,-5.8,-9.4,84,29.71,10.0,WNW,4.6,-,N/A,Snow,Light Snow,290,2013-01-29 14:15:00
7:35 AM,-5.8,-9.4,84,29.71,10.0,West,3.5,-,N/A,,Scattered Clouds,270,2013-01-29 14:35:00
7:55 AM,-5.8,-9.4,84,29.72,7.0,WNW,6.9,-,N/A,Snow,Light Snow,290,2013-01-29 14:55:00
8:15 AM,-7.6,-13.0,77,29.72,10.0,West,5.8,-,N/A,,Scattered Clouds,270,2013-01-29 15:15:00
8:35 AM,-5.8,-9.4,84,29.72,10.0,WNW,8.1,-,N/A,,Clear,300,2013-01-29 15:35:00
8:55 AM,-4.0,-7.6,85,29.72,10.0,NW,8.1,-,N/A,,Clear,310,2013-01-29 15:55:00
9:15 AM,-2.2,-5.8,85,29.73,10.0,WNW,5.8,-,N/A,,Clear,300,2013-01-29 16:15:00
9:35 AM,1.4,-4.0,78,29.73,10.0,WNW,6.9,-,N/A,,Clear,300,2013-01-29 16:35:00
9:55 AM,1.4,-2.2,85,29.74,10.0,WNW,5.8,-,N/A,,Scattered Clouds,300,2013-01-29 16:55:00
10:15 AM,3.2,1.4,92,29.74,10.0,WNW,4.6,-,N/A,,Scattered Clouds,300,2013-01-29 17:15:00
10:35 AM,6.8,3.2,85,29.75,10.0,NW,9.2,-,N/A,,Clear,310,2013-01-29 17:35:00
10:55 AM,8.6,3.2,79,29.75,10.0,WNW,11.5,-,N/A,,Clear,300,2013-01-29 17:55:00
11:15 AM,10.4,5.0,79,29.75,10.0,NW,6.9,-,N/A,,Scattered Clouds,310,2013-01-29 18:15:00
11:35 AM,12.2,5.0,73,29.75,10.0,WNW,11.5,-,N/A,,Scattered Clouds,300,2013-01-29 18:35:00
11:55 AM,12.2,5.0,73,29.75,10.0,NW,10.4,-,N/A,,Clear,310,2013-01-29 18:55:00
12:15 PM,14.0,5.0,67,29.76,10.0,WNW,11.5,-,N/A,,Clear,300,2013-01-29 19:15:00
12:35 PM,14.0,6.8,73,29.75,10.0,WNW,10.4,-,N/A,,Clear,300,2013-01-29 19:35:00
12:55 PM,17.6,8.6,68,29.75,7.0,WNW,17.3,-,N/A,,Scattered Clouds,300,2013-01-29 19:55:00
1:15 PM,17.6,8.6,68,29.75,10.0,WNW,13.8,-,N/A,,Clear,290,2013-01-29 20:15:00
1:35 PM,17.6,8.6,68,29.76,10.0,WNW,15.0,-,N/A,,Scattered Clouds,300,2013-01-29 20:35:00
1:55 PM,17.6,10.4,73,29.77,10.0,WNW,15.0,-,N/A,,Scattered Clouds,300,2013-01-29 20:55:00
2:15 PM,17.6,10.4,73,29.77,10.0,NW,16.1,-,N/A,,Scattered Clouds,310,2013-01-29 21:15:00
2:35 PM,17.6,8.6,68,29.77,10.0,WNW,17.3,-,N/A,,Mostly Cloudy,300,2013-01-29 21:35:00
2:55 PM,19.4,10.4,68,29.78,10.0,WNW,17.3,-,N/A,,Scattered Clouds,300,2013-01-29 21:55:00
3:15 PM,19.4,8.6,63,29.79,10.0,NW,16.1,-,N/A,,Scattered Clouds,310,2013-01-29 22:15:00
3:35 PM,17.6,6.8,63,29.80,10.0,WNW,17.3,-,N/A,,Mostly Cloudy,300,2013-01-29 22:35:00
3:55 PM,17.6,5.0,58,29.81,10.0,WNW,16.1,-,N/A,,Mostly Cloudy,300,2013-01-29 22:55:00
4:15 PM,17.6,8.6,68,29.83,10.0,WNW,16.1,-,N/A,,Overcast,300,2013-01-29 23:15:00
4:35 PM,17.6,8.6,68,29.84,10.0,NW,12.7,-,N/A,,Overcast,310,2013-01-29 23:35:00
4:55 PM,17.6,8.6,68,29.85,10.0,NW,13.8,21.9,N/A,,Overcast,320,2013-01-29 23:55:00
5:15 PM,14.0,5.0,67,29.87,10.0,WNW,12.7,-,N/A,,Overcast,300,2013-01-30 00:15:00
5:35 PM,12.2,3.2,67,29.88,10.0,WNW,9.2,-,N/A,,Scattered Clouds,290,2013-01-30 00:35:00
5:55 PM,14.0,5.0,67,29.89,10.0,NW,10.4,-,N/A,,Mostly Cloudy,320,2013-01-30 00:55:00
6:15 PM,12.2,5.0,73,29.90,10.0,WNW,9.2,-,N/A,,Overcast,290,2013-01-30 01:15:00
6:35 PM,10.4,3.2,73,29.91,10.0,WNW,11.5,-,N/A,,Overcast,290,2013-01-30 01:35:00
6:55 PM,8.6,3.2,79,29.92,10.0,WNW,10.4,-,N/A,,Overcast,290,2013-01-30 01:55:00
7:15 PM,8.6,1.4,73,29.93,10.0,WNW,11.5,-,N/A,,Scattered Clouds,290,2013-01-30 02:15:00
7:35 PM,5.0,-0.4,78,29.93,10.0,WNW,6.9,-,N/A,,Mostly Cloudy,300,2013-01-30 02:35:00
7:55 PM,3.2,-0.4,85,29.94,10.0,NW,5.8,-,N/A,,Overcast,320,2013-01-30 02:55:00
8:15 PM,3.2,-0.4,85,29.95,10.0,West,8.1,-,N/A,,Overcast,280,2013-01-30 03:15:00
8:35 PM,5.0,-0.4,78,29.95,10.0,WNW,8.1,-,N/A,,Overcast,290,2013-01-30 03:35:00
8:55 PM,3.2,-0.4,85,29.96,10.0,WNW,6.9,-,N/A,,Overcast,290,2013-01-30 03:55:00
9:15 PM,5.0,1.4,85,29.96,10.0,WNW,10.4,-,N/A,,Overcast,290,2013-01-30 04:15:00
9:35 PM,6.8,1.4,79,29.95,10.0,WNW,9.2,-,N/A,,Overcast,290,2013-01-30 04:35:00
9:55 PM,5.0,-0.4,78,29.95,10.0,WNW,8.1,-,N/A,,Scattered Clouds,290,2013-01-30 04:55:00
10:15 PM,1.4,-2.2,85,29.95,10.0,WNW,4.6,-,N/A,,Scattered Clouds,300,2013-01-30 05:15:00
10:35 PM,-2.2,-5.8,85,29.95,10.0,WNW,5.8,-,N/A,,Clear,290,2013-01-30 05:35:00
10:55 PM,1.4,-4.0,78,29.95,10.0,NW,4.6,-,N/A,,Mostly Cloudy,310,2013-01-30 05:55:00
11:15 PM,1.4,-4.0,78,29.95,10.0,Calm,Calm,-,N/A,,Mostly Cloudy,0,2013-01-30 06:15:00
11:35 PM,1.4,-2.2,85,29.95,10.0,Calm,Calm,-,N/A,,Mostly Cloudy,0,2013-01-30 06:35:00
11:55 PM,3.2,-2.2,78,29.95,10.0,Calm,Calm,-,N/A,,Mostly Cloudy,0,2013-01-30 06:55:00